Theta_e
284 284 284 284 284 284 284 284 285 285 285 285 285 285 286 287 288 290 290 289 290 292
284 284 283 284 284 284 284 284 284 284 284 284 284 284 285 285 286 288 289 288 289 290
283 284 284 283 283 283 283 283 283 283 283 283 283 283 283 284 285 286 288 288 287 288
283 283 283 283 282 282 283 282 282 282 281 281 282 282 282 282 283 284 286 288 287 287
283 283 283 282 282 283 282 282 281 281 280 281 281 281 280 281 282 283 284 286 286 285
282 282 282 282 282 282 281 281 280 280 280 280 280 280 280 281 282 283 283 284 285 285
282 282 282 282 282 281 281 280 279 280 279 279 279 279 280 281 281 282 283 284 285 285
282 282 281 281 281 280 279 279 279 279 278 278 278 279 280 281 281 281 282 283 284 286
281 281 280 279 279 278 278 278 278 277 277 276 277 280 281 282 281 282 281 281 283 285
279 278 278 277 277 276 276 276 275 275 275 275 276 279 281 281 281 281 281 281 282 282
277 276 275 275 275 274 274 274 273 273 273 274 275 278 280 280 280 280 281 281 281 281
274 273 273 272 272 272 272 272 272 273 273 273 273 277 278 280 279 280 280 280 281 281
271 271 270 270 270 271 271 271 272 272 272 272 272 275 278 279 279 278 279 280 281 281
269 268 268 269 269 269 269 270 269 269 270 271 272 274 277 279 278 278 278 278 279 280
Wind_Speed
6 5 5 7 7 7 7 8 11 11 12 13 14 12 11 9 9 10 10 15 13 11
6 6 7 9 8 6 9 9 11 12 12 12 13 13 13 9 12 11 10 12 13 12
7 6 7 7 9 10 10 11 12 12 12 13 13 13 13 11 12 12 9 8 13 14
7 7 7 7 8 9 11 12 12 13 13 13 13 13 12 13 14 14 14 11 12 16
8 7 8 8 9 9 11 11 12 13 14 14 14 14 14 14 14 14 14 13 14 16
8 8 9 9 9 10 11 12 12 13 14 14 14 15 14 14 14 14 15 14 15 16
8 8 8 9 9 10 10 12 13 13 13 14 14 15 15 14 15 16 16 15 15 16
8 7 7 9 10 10 12 12 13 14 14 14 13 11 13 14 16 17 18 17 16 16
6 6 8 10 11 12 13 13 13 14 14 15 11 21 23 20 14 16 18 18 16 16
6 8 10 11 12 13 13 14 14 14 15 15 15 24 25 24 14 15 16 17 17 15
7 9 11 11 12 13 12 13 13 13 14 14 14 26 26 24 16 14 16 15 16 17
8 10 10 11 12 13 12 12 13 13 14 15 15 26 25 21 13 13 16 16 16 17
6 8 10 11 12 11 12 13 11 14 14 16 15 23 23 20 10 12 12 14 15 24
6 8 9 11 10 12 12 12 13 13 14 15 14 14 22 22 12 11 11 13 14 14
Wind_Direction
323 325 321 324 320 317 320 319 318 320 319 320 320 320 318 313 309 310 311 313 314 312
307 320 320 322 321 318 314 315 318 315 315 314 314 315 315 309 306 306 306 310 309 310
287 289 293 298 306 313 313 317 316 315 314 311 311 312 313 308 305 301 299 302 309 308
290 290 290 290 293 298 306 311 310 312 310 309 309 309 307 303 301 302 299 295 299 304
284 285 287 291 296 300 302 305 305 306 303 304 305 305 304 302 299 299 295 302 301 301
284 283 282 283 291 299 301 303 304 303 300 302 302 302 299 296 297 298 299 295 294 300
288 291 289 293 295 297 301 300 301 298 298 297 299 298 296 297 303 300 297 295 288 292
291 294 293 299 302 302 302 300 298 299 298 297 296 294 301 302 301 302 298 296 291 286
296 303 305 305 308 306 304 304 302 299 296 296 293 298 300 302 301 299 299 297 293 292
310 309 310 310 309 307 305 305 300 298 296 293 294 297 303 306 299 296 296 298 300 298
314 313 314 312 308 306 304 301 298 297 294 291 291 299 306 306 302 298 297 296 296 294
320 312 312 308 307 305 302 300 297 295 296 295 294 300 306 308 303 293 298 299 296 295
305 305 302 300 301 300 297 295 298 297 294 291 291 297 303 313 299 301 298 299 296 300
298 296 293 293 297 298 300 299 296 294 295 294 289 294 308 311 310 301 302 302 303 301